Meteo pe oră la Dzierzgow

Astăzi, 8 Martie, Luni

Timp Temperatura Precipitaţii Vânt Presiune Umiditate
00:00 -2°C° 0.1 mm 5 m/s 752 mmHg 88%
01:00 -2°C° 0 mm 5 m/s 752 mmHg 93%
02:00 -2°C° 0.1 mm 4 m/s 752 mmHg 94%
03:00 -2°C° 0.1 mm 4 m/s 752 mmHg 94%
04:00 -2°C° 0.1 mm 3 m/s 752 mmHg 95%
05:00 -2°C° 0 mm 2 m/s 752 mmHg 93%
06:00 -3°C° 0 mm 2 m/s 753 mmHg 91%
07:00 -3°C° 0 mm 2 m/s 753 mmHg 87%
08:00 -2°C° 0 mm 2 m/s 754 mmHg 74%
09:00 +1°C° 0 mm 2 m/s 754 mmHg 61%
10:00 +1°C° 0 mm 3 m/s 755 mmHg 47%
11:00 +1°C° 0 mm 3 m/s 755 mmHg 46%
12:00 +2°C° 0 mm 3 m/s 755 mmHg 45%
13:00 +2°C° 0 mm 3 m/s 755 mmHg 44%
14:00 +2°C° 0 mm 3 m/s 755 mmHg 45%
15:00 +2°C° 0 mm 3 m/s 755 mmHg 47%
16:00 +2°C° 0 mm 3 m/s 755 mmHg 48%
17:00 +2°C° 0 mm 2 m/s 756 mmHg 53%
18:00 -1°C° 0 mm 2 m/s 756 mmHg 57%
19:00 0°C° 0 mm 1 m/s 756 mmHg 62%
20:00 0°C° 0 mm 1 m/s 756 mmHg 63%
21:00 0°C° 0 mm 1 m/s 757 mmHg 63%
22:00 -1°C° 0 mm 0 m/s 757 mmHg 64%
23:00 -1°C° 0 mm 0 m/s 757 mmHg 64%

Mâine, 9 Martie, Marţi

Timp Temperatura Precipitaţii Vânt Presiune Umiditate
00:00 -1°C° 0 mm 0 m/s 757 mmHg 64%
01:00 -2°C° 0 mm 0 m/s 757 mmHg 65%
02:00 -2°C° 0 mm 0 m/s 757 mmHg 65%
03:00 -1°C° 0 mm 1 m/s 756 mmHg 66%
04:00 -1°C° 0 mm 1 m/s 756 mmHg 66%
05:00 -1°C° 0 mm 1 m/s 756 mmHg 66%
06:00 -1°C° 0 mm 1 m/s 756 mmHg 66%
07:00 -1°C° 0 mm 1 m/s 756 mmHg 65%
08:00 +1°C° 0 mm 1 m/s 756 mmHg 60%
09:00 +1°C° 0 mm 2 m/s 756 mmHg 54%
10:00 +2°C° 0 mm 2 m/s 756 mmHg 48%
11:00 +3°C° 0 mm 2 m/s 756 mmHg 45%
12:00 +3°C° 0 mm 2 m/s 756 mmHg 42%
13:00 +4°C° 0 mm 2 m/s 756 mmHg 39%
14:00 +3°C° 0 mm 2 m/s 755 mmHg 40%
15:00 +3°C° 0 mm 2 m/s 755 mmHg 41%
16:00 +3°C° 0 mm 2 m/s 755 mmHg 42%
17:00 +2°C° 0 mm 2 m/s 755 mmHg 46%
18:00 +1°C° 0 mm 2 m/s 755 mmHg 50%
19:00 -1°C° 0 mm 2 m/s 755 mmHg 55%
20:00 -2°C° 0 mm 2 m/s 755 mmHg 56%
21:00 -2°C° 0 mm 2 m/s 755 mmHg 57%
22:00 -2°C° 0 mm 2 m/s 756 mmHg 58%
23:00 -2°C° 0 mm 2 m/s 755 mmHg 61%

Poimâine, 10 Martie, Miercuri

Timp Temperatura Precipitaţii Vânt Presiune Umiditate
00:00 -2°C° 0 mm 2 m/s 755 mmHg 64%
01:00 -3°C° 0 mm 2 m/s 755 mmHg 67%
02:00 -3°C° 0 mm 2 m/s 755 mmHg 67%
03:00 -3°C° 0 mm 2 m/s 755 mmHg 68%
04:00 -3°C° 0 mm 2 m/s 755 mmHg 69%
05:00 -3°C° 0 mm 2 m/s 755 mmHg 68%
06:00 -1°C° 0 mm 1 m/s 755 mmHg 67%
07:00 0°C° 0 mm 1 m/s 755 mmHg 66%
08:00 -1°C° 0 mm 2 m/s 755 mmHg 58%
09:00 +2°C° 0 mm 2 m/s 756 mmHg 51%
10:00 +3°C° 0 mm 2 m/s 756 mmHg 43%
11:00 +4°C° 0 mm 2 m/s 756 mmHg 41%
12:00 +4°C° 0 mm 2 m/s 756 mmHg 38%
13:00 +5°C° 0 mm 2 m/s 756 mmHg 36%
14:00 +5°C° 0 mm 2 m/s 756 mmHg 37%
15:00 +5°C° 0 mm 1 m/s 755 mmHg 37%
16:00 +5°C° 0 mm 1 m/s 755 mmHg 38%
17:00 +4°C° 0 mm 1 m/s 755 mmHg 43%
18:00 +1°C° 0 mm 2 m/s 756 mmHg 49%
19:00 -1°C° 0 mm 2 m/s 756 mmHg 54%
20:00 -1°C° 0 mm 2 m/s 756 mmHg 55%
21:00 -2°C° 0 mm 2 m/s 756 mmHg 57%
22:00 -2°C° 0 mm 3 m/s 756 mmHg 58%
23:00 -2°C° 0 mm 3 m/s 756 mmHg 58%

11 Martie, Joi

Timp Temperatura Precipitaţii Vânt Presiune Umiditate
00:00 -2°C° 0 mm 3 m/s 756 mmHg 58%
01:00 -2°C° 0 mm 3 m/s 756 mmHg 58%
02:00 -2°C° 0 mm 3 m/s 755 mmHg 58%
03:00 -2°C° 0 mm 3 m/s 755 mmHg 59%
04:00 -3°C° 0 mm 4 m/s 754 mmHg 59%
05:00 -2°C° 0 mm 4 m/s 754 mmHg 60%
06:00 -2°C° 0 mm 4 m/s 753 mmHg 60%
07:00 -2°C° 0 mm 5 m/s 753 mmHg 61%
08:00 0°C° 0 mm 5 m/s 752 mmHg 59%
09:00 +1°C° 0 mm 6 m/s 752 mmHg 57%
10:00 +2°C° 0 mm 6 m/s 751 mmHg 55%
11:00 +3°C° 0 mm 6 m/s 751 mmHg 59%
12:00 +3°C° 0 mm 7 m/s 750 mmHg 63%
13:00 +4°C° 0 mm 7 m/s 749 mmHg 68%
14:00 +4°C° 0.1 mm 7 m/s 748 mmHg 71%
15:00 +3°C° 0.1 mm 7 m/s 747 mmHg 74%
16:00 +3°C° 0.1 mm 7 m/s 746 mmHg 78%
17:00 +3°C° 0.4 mm 7 m/s 746 mmHg 80%
18:00 +3°C° 0.4 mm 6 m/s 745 mmHg 83%
19:00 +3°C° 0.4 mm 6 m/s 745 mmHg 86%
20:00 +3°C° 0 mm 6 m/s 745 mmHg 85%
21:00 +3°C° 0 mm 6 m/s 744 mmHg 85%
22:00 +3°C° 0 mm 6 m/s 744 mmHg 84%
23:00 +4°C° 0.3 mm 6 m/s 744 mmHg 87%

12 Martie, Vineri

Timp Temperatura Precipitaţii Vânt Presiune Umiditate
00:00 +5°C° 0.3 mm 5 m/s 744 mmHg 89%
01:00 +5°C° 0.3 mm 5 m/s 744 mmHg 91%
02:00 +5°C° 0 mm 5 m/s 744 mmHg 90%
03:00 +5°C° 0 mm 5 m/s 744 mmHg 89%
04:00 +5°C° 0 mm 5 m/s 744 mmHg 88%
05:00 +3°C° 0 mm 6 m/s 745 mmHg 86%
06:00 +3°C° 0 mm 6 m/s 746 mmHg 85%
07:00 +3°C° 0 mm 6 m/s 746 mmHg 83%
08:00 +4°C° 0 mm 7 m/s 747 mmHg 77%
09:00 +4°C° 0 mm 7 m/s 747 mmHg 72%
10:00 +5°C° 0 mm 8 m/s 747 mmHg 67%
11:00 +6°C° 0.1 mm 8 m/s 747 mmHg 63%
12:00 +6°C° 0.1 mm 7 m/s 747 mmHg 59%
13:00 +8°C° 0.1 mm 7 m/s 748 mmHg 55%
14:00 +8°C° 0.1 mm 7 m/s 748 mmHg 54%
15:00 +8°C° 0.1 mm 6 m/s 748 mmHg 54%
16:00 +8°C° 0.1 mm 6 m/s 748 mmHg 53%
17:00 +7°C° 0 mm 5 m/s 748 mmHg 59%
18:00 +6°C° 0 mm 4 m/s 748 mmHg 64%
19:00 +5°C° 0 mm 3 m/s 748 mmHg 69%
20:00 +4°C° 0 mm 3 m/s 748 mmHg 71%
21:00 +4°C° 0 mm 4 m/s 748 mmHg 72%
22:00 +4°C° 0 mm 4 m/s 748 mmHg 74%
23:00 +3°C° 0 mm 4 m/s 748 mmHg 74%

13 Martie, Sâmbătă

Timp Temperatura Precipitaţii Vânt Presiune Umiditate
00:00 +3°C° 0 mm 4 m/s 747 mmHg 75%
01:00 +2°C° 0 mm 5 m/s 747 mmHg 75%
02:00 +2°C° 0 mm 5 m/s 747 mmHg 76%
03:00 +2°C° 0 mm 5 m/s 747 mmHg 77%
04:00 +2°C° 0 mm 5 m/s 746 mmHg 78%
05:00 +2°C° 0 mm 5 m/s 746 mmHg 78%
06:00 +3°C° 0 mm 4 m/s 746 mmHg 79%
07:00 +3°C° 0 mm 4 m/s 746 mmHg 79%
08:00 +3°C° 0.1 mm 5 m/s 746 mmHg 80%
09:00 +3°C° 0.1 mm 5 m/s 746 mmHg 81%
10:00 +4°C° 0.1 mm 6 m/s 747 mmHg 81%
11:00 +6°C° 0 mm 5 m/s 747 mmHg 76%
12:00 +7°C° 0 mm 5 m/s 747 mmHg 71%
13:00 +7°C° 0 mm 5 m/s 747 mmHg 65%
14:00 +8°C° 0.2 mm 5 m/s 746 mmHg 62%
15:00 +8°C° 0.2 mm 5 m/s 746 mmHg 60%
16:00 +8°C° 0.2 mm 5 m/s 746 mmHg 57%
17:00 +7°C° 0.1 mm 5 m/s 746 mmHg 63%
18:00 +6°C° 0.1 mm 4 m/s 746 mmHg 69%
19:00 +4°C° 0.1 mm 3 m/s 746 mmHg 76%
20:00 +4°C° 0 mm 3 m/s 746 mmHg 76%
21:00 +4°C° 0 mm 4 m/s 746 mmHg 77%
22:00 +4°C° 0 mm 4 m/s 746 mmHg 78%
23:00 +4°C° 0 mm 4 m/s 746 mmHg 79%
Arată mai mult

Formular de consimțământ

Meteoprog și furnizorii noștri de servicii pot stoca și accesa date personale, precum cookies, identificatori de dispozitiv sau alte tehnologii similare pe dispozitivul dumneavoastră și procesa astfel de date pentru a personaliza conținutul și reclamele, dar și pentru a oferi caracteristici de social media și pentru a analiza traficul.

  • Stocarea și/sau accesarea informațiilor pe dispozitivul dumneavoastră

    Cookies, identificatori de dispozitiv sau alte informații pot fi stocate sau accesate pe dispozitiv în scopurile indicate mai sus.

  • Reclame și conținut personalizat, evaluarea reclamelor și a conținutului, informații despre audiențe și dezvoltarea produselor

    Reclamele și conținutul pot fi personalizate pe baza unui profil. Pot fi adăugate date suplimentare pentru a personaliza mai bine reclamele și conținutul. Performanța reclamelor și conținutului poate fi măsurată. Pot fi obținute informații despre utilizatorii care au văzut reclamele și conținutul. Aceste date pot fi utilizate pentru a dezvolta sau îmbunătăți experiența utilizatorilor, sistemele și software-ul.

Dând clic pe ‘Sunt de acord’, permiteți utilizarea cookie-urilor menționate, a identificatorilor de dispozitiv, balizelor web sau altor tehnologii similare. Setările pot fi modificate din browser-ul dispozitivului dumneavoastră.

În anumite scopuri, interesele legitime pot prima asupra consimțământului. Puteți citi mai multe informații în acest sens în Politica privind Confidențialitatea Datelor și Cookie.